Regional Weather Roundup
Issued by NWS Goodland, KS

Home | Current Version | Previous Version | Text Only | Print | Product List | Glossary Off
Versions: 1 2 3 4 5 6 7 8 9 10 11 12 13 14 15 16 17 18 19 20 21 22 23 24 25 26 27 28 29 30 31 32 33 34 35 36 37 38 39 40 41 42 43 44 45 46 47 48 49 50

000
ASUS43 KGLD 232159
RWRGLD

GOODLAND FORECAST AREA HOURLY WEATHER ROUNDUP
NATIONAL WEATHER SERVICE GOODLAND KS
400 PM MDT SUN APR 23 2017

...OFFICIAL OBSERVATIONS...

CITY           SKY/WX    TMP DP  RH WIND       PRES   REMARKS
GOODLAND KS    CLOUDY    69  38  32 S25G40    29.84F
HILL CITY KS   CLOUDY    70  26  19 S18G31    29.92F
IMPERIAL NEB   CLOUDY    68  38  33 S23G33    29.82F
MCCOOK NEB     CLOUDY    70  33  25 S24G37    29.84F
AKRON CO       CLOUDY    69  37  30 S21G30    29.79F
BURLINGTON CO  NOT AVBL
LIMON CO       CLOUDY    66  38  35 S18G26    29.84F
$$

...UNOFFICIAL OBSERVATIONS...

CITY           SKY/WX    TMP DP  RH WIND       PRES   REMARKS
LENORA KS        N/A     68  32  26 MISG        N/A
NORTON KS      SUNNY     68  21  17 S23G36    29.89F
SHARON SPRINGS   N/A     66  42  42 S28G38      N/A
TRENTON NEB      N/A     67  32  27 SW18        N/A
KIT CARSON CO    N/A     71  39  30 MISG        N/A
YUMA CO        FAIR      66  37  34 S22G29    29.79F
$$




USA.gov is the U.S. government's official web portal to all federal, state and local government web resources and services.